Location: Northcutt
(34.7304°N, 84.4305°W)
Time: 15:09:54
(UTC+00:00)

Courier 1B - Visible Passes

Search period start: 03 October 2022 00:00
Search period end: 13 October 2022 00:00
Orbit: 962 x 1209 km, 28.3° (Epoch: 02 October)

Date Brightness Start Highest point End Pass type
(mag) Time Alt. Az. Time Alt. Az. Time Alt. Az.
03 Oct 9.1 00:57:26 10° WSW 01:02:37 24° SSW 01:06:04 16° SSE visible
04 Oct 9.0 00:03:13 10° WSW 00:09:02 30° SSW 00:14:38 10° SE visible
04 Oct 9.8 02:01:08 10° SW 02:02:10 10° SSW 02:02:46 10° SSW visible
05 Oct 9.7 01:05:01 10° WSW 01:08:38 15° SSW 01:12:12 10° S visible
06 Oct 9.6 00:10:14 10° WSW 00:15:05 20° SSW 00:19:47 10° SSE visible
08 Oct 10.0 00:18:32 10° SW 00:21:02 12° SSW 00:23:31 10° S visible
